2023/01/25 00:00:00,19.9,-4.9
2023/01/25 00:10:00,21.0,-4.9
2023/01/25 00:20:00,20.9,-5.1
2023/01/25 00:30:00,21.0,-5.1
2023/01/25 00:40:00,21.4,-4.9
2023/01/25 00:50:00,21.7,-5.2
2023/01/25 01:00:00,21.7,-5.3
2023/01/25 01:10:00,22.5,-5.2
2023/01/25 01:20:00,22.8,-5.2
2023/01/25 01:30:00,23.2,-5.3
2023/01/25 01:40:00,24.1,-5.2
2023/01/25 01:50:00,24.6,-5.2
2023/01/25 02:00:00,24.9,-5.1
2023/01/25 02:10:00,25.2,-5.2
2023/01/25 02:20:00,25.3,-5.1
2023/01/25 02:30:00,25.6,-5.2
2023/01/25 02:40:00,25.7,-5.2
2023/01/25 02:50:00,26.3,-5.3
2023/01/25 03:00:00,26.5,-5.3
2023/01/25 03:10:00,26.7,-5.3
2023/01/25 03:20:00,27.5,-5.4
2023/01/25 03:30:00,27.8,-5.3
2023/01/25 03:40:00,27.8,-5.2
2023/01/25 03:50:00,28.1,-5.2
2023/01/25 04:00:00,28.8,-5.2
2023/01/25 04:10:00,29.1,-5.2
2023/01/25 04:20:00,29.3,-5.3
2023/01/25 04:30:00,29.3,-5.3
2023/01/25 04:40:00,29.8,-5.2
2023/01/25 04:50:00,29.9,-5.2
2023/01/25 05:00:00,29.9,-5.2
2023/01/25 05:10:00,30.4,-5.4
2023/01/25 05:20:00,30.4,-5.1
2023/01/25 05:30:00,30.6,-5.2
2023/01/25 05:40:00,31.2,-5.3
2023/01/25 05:50:00,32.1,-5.1
2023/01/25 06:00:00,32.4,-5.2
2023/01/25 06:10:00,32.7,-4.8
2023/01/25 06:20:00,33.5,-5.1
2023/01/25 06:30:00,34.4,-5.0
2023/01/25 06:40:00,34.6,-5.1
2023/01/25 06:50:00,34.7,-4.8
2023/01/25 07:00:00,34.9,-4.9
2023/01/25 07:10:00,35.1,-5.0
2023/01/25 07:20:00,36.1,-5.1
2023/01/25 07:30:00,37.4,-5.1
2023/01/25 07:40:00,38.0,-5.0
2023/01/25 07:50:00,38.8,-4.9
2023/01/25 08:00:00,39.3,-4.5
2023/01/25 08:10:00,39.4,-4.6
2023/01/25 08:20:00,40.2,-4.5
2023/01/25 08:30:00,41.3,-4.3
2023/01/25 08:40:00,41.6,-3.7
2023/01/25 08:50:00,41.6,-1.6
2023/01/25 09:00:00,41.5,-3.2
2023/01/25 09:10:00,41.7,-3.4
2023/01/25 09:20:00,42.8,-2.4
2023/01/25 09:30:00,42.7,-2.8
2023/01/25 09:40:00,43.0,-1.9
2023/01/25 09:50:00,42.8,-1.6
2023/01/25 10:00:00,43.0,-3.0
2023/01/25 10:10:00,43.1,-1.6
2023/01/25 10:20:00,42.8, 0.2
2023/01/25 10:30:00,42.3, 1.0
2023/01/25 10:40:00,41.9,-1.2
2023/01/25 10:50:00,42.0, 1.8
2023/01/25 11:00:00,41.7, 1.9
2023/01/25 11:10:00,41.7,-1.2
2023/01/25 11:20:00,42.3,-2.5
2023/01/25 11:30:00,42.9,-1.7
2023/01/25 11:40:00,43.0,-2.8
2023/01/25 11:50:00,43.2,-2.1
2023/01/25 12:00:00,44.0,-1.4
2023/01/25 12:10:00,44.0, 2.5
2023/01/25 12:20:00,43.7, 0.1
2023/01/25 12:30:00,43.3, 0.4
2023/01/25 12:40:00,43.5, 0.6
2023/01/25 12:50:00,43.0, 1.4
2023/01/25 13:00:00,42.9, 2.7
2023/01/25 13:10:00,42.8, 1.2
2023/01/25 13:20:00,42.5,-0.1
2023/01/25 13:30:00,42.4,-0.8
2023/01/25 13:40:00,42.4,-0.7
2023/01/25 13:50:00,42.8, 0.4
2023/01/25 14:00:00,42.7, 0.2
2023/01/25 14:10:00,42.5,-1.1
2023/01/25 14:20:00,42.8,-1.4
2023/01/25 14:30:00,43.2,-1.8
2023/01/25 14:40:00,43.8,-1.4
2023/01/25 14:50:00,43.7, 0.5
2023/01/25 15:00:00,43.5, 0.5
2023/01/25 15:10:00,43.6,-0.4
2023/01/25 15:20:00,43.4,-1.3
2023/01/25 15:30:00,44.0,-1.8
2023/01/25 15:40:00,44.8,-1.4
2023/01/25 15:50:00,45.1,-0.1
2023/01/25 16:00:00,45.5, 0.2
2023/01/25 16:10:00,45.3,-0.4
2023/01/25 16:20:00,45.1,-0.7
2023/01/25 16:30:00,45.3,-1.5
2023/01/25 16:40:00,45.3,-1.3
2023/01/25 16:50:00,45.0,-2.1
2023/01/25 17:00:00,44.7,-2.5
2023/01/25 17:10:00,44.4,-2.5
2023/01/25 17:20:00,44.3,-2.2
2023/01/25 17:30:00,44.1,-2.0
2023/01/25 17:40:00,44.1,-2.3
2023/01/25 17:50:00,44.1,-2.5
2023/01/25 18:00:00,44.0,-2.5
2023/01/25 18:10:00,43.7,-2.8
2023/01/25 18:20:00,43.8,-2.4
2023/01/25 18:30:00,43.5,-3.2
2023/01/25 18:40:00,43.3,-3.2
2023/01/25 18:50:00,43.2,-3.3
2023/01/25 19:00:00,43.1,-3.2
2023/01/25 19:10:00,42.8,-3.3
2023/01/25 19:20:00,42.5,-3.0
2023/01/25 19:30:00,42.3,-3.2
2023/01/25 19:40:00,42.0,-3.4
2023/01/25 19:50:00,42.0,-3.4
2023/01/25 20:00:00,41.8,-3.2
2023/01/25 20:10:00,41.5,-3.5
2023/01/25 20:20:00,41.5,-3.7
2023/01/25 20:30:00,41.4,-3.7
2023/01/25 20:40:00,41.4,-4.1
2023/01/25 20:50:00,41.1,-3.7
2023/01/25 21:00:00,40.9,-3.7
2023/01/25 21:10:00,40.8,-3.9
2023/01/25 21:20:00,40.7,-4.0
2023/01/25 21:30:00,40.5,-3.8
2023/01/25 21:40:00,40.5,-3.8
2023/01/25 21:50:00,40.3,-3.9
2023/01/25 22:00:00,40.1,-3.9
2023/01/25 22:10:00,40.1,-4.8
2023/01/25 22:20:00,40.1,-5.0
2023/01/25 22:30:00,39.9,-5.8
2023/01/25 22:40:00,39.7,-5.6
2023/01/25 22:50:00,39.5,-5.9
2023/01/25 23:00:00,39.4,-6.6
2023/01/25 23:10:00,39.4,-6.5
2023/01/25 23:20:00,39.4,-7.1
2023/01/25 23:30:00,39.4,-7.0
2023/01/25 23:40:00,39.4,-7.3
2023/01/25 23:50:00,39.4,-7.2
